| time (UTC) | temp C | wind direction | speed KPH | gust KPH | rain 1hr cm | rain 24hr cm | rain mn cm | humidity % | barometer mb |
| 20260507155111 | 10 | 295 | 16.1 | 29.0 | 0.00 | 0.00 | 0.00 | 59 | 1015.3 |
| 20260507154607 | 10 | 305 | 16.1 | 29.0 | 0.00 | 0.00 | 0.00 | 59 | 1015.3 |
| 20260507154108 | 10 | 284 | 19.3 | 32.2 | 0.00 | 0.00 | 0.00 | 60 | 1015.4 |
| 20260507153608 | 9 | 294 | 17.7 | 32.2 | 0.00 | 0.00 | 0.00 | 61 | 1015.4 |
| 20260507153108 | 9 | 305 | 16.1 | 25.7 | 0.00 | 0.00 | 0.00 | 61 | 1015.4 |
| 20260507152609 | 9 | 311 | 17.7 | 29.0 | 0.00 | 0.00 | 0.00 | 57 | 1015.3 |
| 20260507152108 | 9 | 315 | 17.7 | 29.0 | 0.00 | 0.00 | 0.00 | 60 | 1015.3 |
| 20260507151827 | 9 | 288 | 17.7 | 29.0 | 0.00 | 0.00 | 0.00 | 63 | 1015.3 |
| 20260507151108 | 9 | 300 | 19.3 | 32.2 | 0.00 | 0.00 | 0.00 | 62 | 1015.3 |
| 20260507150608 | 8 | 290 | 16.1 | 32.2 | 0.00 | 0.00 | 0.00 | 62 | 1015.3 |
| 20260507150108 | 8 | 304 | 17.7 | 29.0 | 0.00 | 0.00 | 0.00 | 63 | 1015.3 |
| 20260507145608 | 8 | 291 | 17.7 | 29.0 | 0.00 | 0.00 | 0.00 | 60 | 1015.3 |
| 20260507145107 | 8 | 282 | 17.7 | 29.0 | 0.00 | 0.00 | 0.00 | 62 | 1015.3 |
| 20260507144608 | 8 | 306 | 16.1 | 27.4 | 0.00 | 0.00 | 0.00 | 59 | 1015.3 |
| 20260507144336 | 8 | 302 | 14.5 | 24.1 | 0.00 | 0.00 | 0.00 | 64 | 1015.3 |
| 20260507143610 | 8 | 310 | 16.1 | 24.1 | 0.00 | 0.00 | 0.00 | 62 | 1015.4 |
| 20260507143105 | 8 | 312 | 14.5 | 22.5 | 0.00 | 0.00 | 0.00 | 61 | 1015.4 |
| 20260507142605 | 8 | 264 | 12.9 | 22.5 | 0.00 | 0.00 | 0.00 | 61 | 1015.4 |
| 20260507142107 | 8 | 293 | 11.3 | 22.5 | 0.00 | 0.00 | 0.00 | 62 | 1015.3 |
| 20260507141606 | 8 | 334 | 11.3 | 20.9 | 0.00 | 0.00 | 0.00 | 64 | 1015.3 |
| 20260507141105 | 8 | 338 | 11.3 | 20.9 | 0.00 | 0.00 | 0.00 | 63 | 1015.3 |
| 20260507140606 | 8 | 286 | 11.3 | 20.9 | 0.00 | 0.00 | 0.00 | 64 | 1015.3 |
| 20260507140330 | 8 | 297 | 9.7 | 16.1 | 0.00 | 0.00 | 0.00 | 65 | 1015.3 |
| 20260507135605 | 8 | 347 | 9.7 | 19.3 | 0.00 | 0.00 | 0.00 | 65 | 1015.2 |
| 20260507135107 | 7 | 347 | 9.7 | 19.3 | 0.00 | 0.00 | 0.00 | 64 | 1015.2 |
| 20260507134601 | 7 | 294 | 9.7 | 19.3 | 0.00 | 0.00 | 0.00 | 64 | 1015.3 |
| 20260507134103 | 7 | 295 | 11.3 | 20.9 | 0.00 | 0.00 | 0.00 | 65 | 1015.3 |
| 20260507133601 | 7 | 314 | 11.3 | 20.9 | 0.00 | 0.00 | 0.00 | 65 | 1015.3 |
| 20260507133102 | 7 | 322 | 11.3 | 17.7 | 0.00 | 0.00 | 0.00 | 64 | 1015.5 |
| 20260507132601 | 7 | 295 | 8.0 | 17.7 | 0.00 | 0.00 | 0.00 | 64 | 1015.4 |
| 20260507132102 | 7 | 290 | 8.0 | 14.5 | 0.00 | 0.00 | 0.00 | 65 | 1015.5 |
| 20260507131829 | 7 | 271 | 6.4 | 11.3 | 0.00 | 0.00 | 0.00 | 67 | 1015.4 |
| 20260507131102 | 7 | 278 | 6.4 | 14.5 | 0.00 | 0.00 | 0.00 | 69 | 1015.3 |
| 20260507130822 | 7 | 283 | 8.0 | 14.5 | 0.00 | 0.00 | 0.00 | 67 | 1015.3 |
| 20260507130057 | 6 | 283 | 8.0 | 14.5 | 0.00 | 0.00 | 0.00 | 69 | 1015.3 |
| 20260507125557 | 6 | 286 | 8.0 | 12.9 | 0.00 | 0.00 | 0.00 | 69 | 1015.2 |
| 20260507125315 | 6 | 301 | 8.0 | 12.9 | 0.00 | 0.00 | 0.00 | 68 | 1015.2 |
| 20260507124556 | 6 | 280 | 6.4 | 11.3 | 0.00 | 0.00 | 0.00 | 72 | 1015.2 |
| 20260507124055 | 6 | 284 | 4.8 | 9.7 | 0.00 | 0.00 | 0.00 | 72 | 1015.2 |
| 20260507123556 | 6 | 289 | 4.8 | 8.0 | 0.00 | 0.00 | 0.00 | 76 | 1015.1 |
| 20260507123055 | 5 | 281 | 4.8 | 8.0 | 0.00 | 0.00 | 0.00 | 74 | 1015.1 |
| 20260507122556 | 5 | 274 | 4.8 | 9.7 | 0.00 | 0.00 | 0.00 | 76 | 1015.2 |
| 20260507122055 | 5 | 276 | 4.8 | 9.7 | 0.00 | 0.00 | 0.00 | 77 | 1015.1 |
| 20260507121555 | 5 | 274 | 4.8 | 8.0 | 0.00 | 0.00 | 0.00 | 76 | 1015.1 |
| 20260507121054 | 5 | 286 | 4.8 | 8.0 | 0.00 | 0.00 | 0.00 | 77 | 1015.0 |
| 20260507120553 | 5 | 266 | 4.8 | 9.7 | 0.00 | 0.00 | 0.00 | 76 | 1015.0 |
| 20260507120313 | 5 | 285 | 4.8 | 9.7 | 0.00 | 0.00 | 0.00 | 77 | 1015.1 |
| 20260507115551 | 5 | 285 | 3.2 | 8.0 | 0.00 | 0.00 | 0.00 | 78 | 1015.1 |
| 20260507115052 | 5 | 274 | 3.2 | 6.4 | 0.00 | 0.00 | 0.00 | 79 | 1015.1 |
| 20260507114811 | 4 | 276 | 3.2 | 6.4 | 0.00 | 0.00 | 0.00 | 79 | 1015.1 |
| 20260507114045 | 4 | 285 | 3.2 | 6.4 | 0.00 | 0.00 | 0.00 | 81 | 1015.1 |
| 20260507113808 | 4 | 255 | 3.2 | 6.4 | 0.00 | 0.00 | 0.00 | 81 | 1015.1 |
| 20260507113045 | 3 | 278 | 3.2 | 6.4 | 0.00 | 0.00 | 0.00 | 82 | 1015.1 |
| 20260507112801 | 3 | 272 | 3.2 | 4.8 | 0.00 | 0.00 | 0.00 | 83 | 1015.1 |
| 20260507112041 | 3 | 267 | 3.2 | 6.4 | 0.00 | 0.00 | 0.00 | 82 | 1015.0 |
| 20260507111542 | 3 | 259 | 4.8 | 6.4 | 0.00 | 0.00 | 0.00 | 82 | 1015.0 |
| 20260507111040 | 3 | 258 | 3.2 | 4.8 | 0.00 | 0.00 | 0.00 | 82 | 1015.0 |
| 20260507110538 | 3 | 252 | 3.2 | 6.4 | 0.00 | 0.00 | 0.00 | 82 | 1014.8 |
| 20260507110037 | 3 | 242 | 3.2 | 6.4 | 0.00 | 0.00 | 0.00 | 81 | 1014.7 |
| 20260507105537 | 3 | 267 | 3.2 | 6.4 | 0.00 | 0.00 | 0.00 | 81 | 1014.7 |
| 20260507105038 | 3 | 263 | 3.2 | 6.4 | 0.00 | 0.00 | 0.00 | 81 | 1014.8 |
| 20260507104756 | 3 | 278 | 4.8 | 6.4 | 0.00 | 0.00 | 0.00 | 81 | 1014.7 |
| 20260507104033 | 3 | 270 | 4.8 | 8.0 | 0.00 | 0.00 | 0.00 | 81 | 1014.7 |
| 20260507103754 | 3 | 274 | 4.8 | 8.0 | 0.00 | 0.00 | 0.00 | 81 | 1014.7 |
| 20260507103034 | 3 | 288 | 4.8 | 8.0 | 0.00 | 0.00 | 0.00 | 81 | 1014.6 |
| 20260507102528 | 3 | 276 | 4.8 | 6.4 | 0.00 | 0.00 | 0.00 | 82 | 1014.7 |
| 20260507102022 | 3 | 269 | 4.8 | 6.4 | 0.00 | 0.00 | 0.00 | 83 | 1014.7 |
| 20260507101516 | 3 | 268 | 3.2 | 6.4 | 0.00 | 0.00 | 0.00 | 83 | 1014.6 |
| 20260507101010 | 3 | 258 | 3.2 | 6.4 | 0.00 | 0.00 | 0.00 | 83 | 1014.6 |
| 20260507100732 | 3 | 253 | 3.2 | 6.4 | 0.00 | 0.00 | 0.00 | 82 | 1014.7 |
| 20260507095958 | 3 | 260 | 3.2 | 6.4 | 0.00 | 0.00 | 0.00 | 82 | 1014.6 |
| 20260507095941 | 3 | 264 | 3.2 | 4.8 | 0.00 | 0.00 | 0.00 | 82 | 1014.6 |
| 20260507094946 | 4 | 263 | 3.2 | 6.4 | 0.00 | 0.00 | 0.00 | 81 | 1014.6 |
| 20260507094705 | 4 | 262 | 3.2 | 6.4 | 0.00 | 0.00 | 0.00 | 80 | 1014.6 |
| 20260507093934 | 4 | 272 | 4.8 | 6.4 | 0.00 | 0.00 | 0.00 | 79 | 1014.6 |
| 20260507093652 | 5 | 266 | 4.8 | 8.0 | 0.00 | 0.00 | 0.00 | 78 | 1014.6 |
| 20260507092922 | 5 | 288 | 4.8 | 11.3 | 0.00 | 0.00 | 0.00 | 78 | 1014.6 |
| 20260507092636 | 5 | 299 | 6.4 | 11.3 | 0.00 | 0.00 | 0.00 | 77 | 1014.6 |
| 20260507091910 | 5 | 284 | 6.4 | 11.3 | 0.00 | 0.00 | 0.00 | 77 | 1014.6 |
| 20260507091405 | 5 | 293 | 6.4 | 9.7 | 0.00 | 0.00 | 0.00 | 78 | 1014.5 |
| 20260507090858 | 5 | 311 | 6.4 | 9.7 | 0.00 | 0.00 | 0.00 | 78 | 1014.4 |
| 20260507090352 | 5 | 300 | 6.4 | 9.7 | 0.00 | 0.00 | 0.00 | 78 | 1014.5 |
| 20260507085846 | 5 | 294 | 8.0 | 9.7 | 0.00 | 0.00 | 0.00 | 78 | 1014.5 |
| 20260507085602 | 5 | 294 | 8.0 | 11.3 | 0.00 | 0.00 | 0.00 | 77 | 1014.5 |
| 20260507084834 | 5 | 289 | 8.0 | 11.3 | 0.00 | 0.00 | 0.00 | 77 | 1014.5 |
| 20260507084328 | 5 | 288 | 8.0 | 11.3 | 0.00 | 0.00 | 0.00 | 77 | 1014.4 |
| 20260507084044 | 5 | 287 | 8.0 | 11.3 | 0.00 | 0.00 | 0.00 | 77 | 1014.3 |
| 20260507083317 | 5 | 293 | 8.0 | 11.3 | 0.00 | 0.00 | 0.00 | 78 | 1014.3 |
| 20260507082810 | 5 | 297 | 8.0 | 12.9 | 0.00 | 0.00 | 0.00 | 78 | 1014.3 |
| 20260507082306 | 6 | 297 | 6.4 | 12.9 | 0.00 | 0.00 | 0.00 | 77 | 1014.3 |
| 20260507081758 | 6 | 295 | 6.4 | 9.7 | 0.00 | 0.00 | 0.00 | 77 | 1014.1 |
| 20260507081252 | 6 | 293 | 6.4 | 12.9 | 0.00 | 0.00 | 0.00 | 77 | 1014.3 |
| 20260507080746 | 6 | 283 | 6.4 | 12.9 | 0.00 | 0.00 | 0.00 | 78 | 1014.3 |
| 20260507080240 | 6 | 293 | 6.4 | 9.7 | 0.00 | 0.00 | 0.00 | 78 | 1014.3 |
| 20260507075734 | 6 | 280 | 8.0 | 9.7 | 0.00 | 0.00 | 0.00 | 78 | 1014.3 |
| 20260507075228 | 6 | 289 | 6.4 | 9.7 | 0.00 | 0.00 | 0.00 | 77 | 1014.4 |
| 20260507074721 | 6 | 304 | 6.4 | 9.7 | 0.00 | 0.03 | 0.00 | 77 | 1014.3 |
| 20260507074216 | 6 | 301 | 6.4 | 9.7 | 0.00 | 0.03 | 0.00 | 77 | 1014.4 |
| 20260507073711 | 6 | 299 | 8.0 | 11.3 | 0.00 | 0.03 | 0.00 | 78 | 1014.3 |
| 20260507073204 | 6 | 301 | 8.0 | 11.3 | 0.00 | 0.05 | 0.00 | 77 | 1014.3 |
| 20260507072658 | 6 | 290 | 8.0 | 11.3 | 0.00 | 0.05 | 0.00 | 77 | 1014.4 |
| 20260507072153 | 6 | 291 | 8.0 | 11.3 | 0.00 | 0.05 | 0.00 | 77 | 1014.4 |
| 20260507072138 | 6 | 291 | 8.0 | 11.3 | 0.00 | 0.05 | 0.00 | 77 | 1014.4 |
| 20260507071358 | 6 | 290 | 6.4 | 11.3 | 0.00 | 0.05 | 0.00 | 76 | 1014.4 |
| 20260507070634 | 6 | 284 | 6.4 | 9.7 | 0.00 | 0.05 | 0.00 | 76 | 1014.3 |
| 20260507070128 | 6 | 300 | 6.4 | 11.3 | 0.00 | 0.05 | 0.00 | 76 | 1014.3 |
| 20260507065623 | 6 | 299 | 8.0 | 11.3 | 0.00 | 0.05 | 0.00 | 76 | 1014.4 |
| 20260507065335 | 6 | 301 | 6.4 | 11.3 | 0.00 | 0.05 | 0.00 | 76 | 1014.5 |
| 20260507064610 | 6 | 279 | 6.4 | 11.3 | 0.00 | 0.05 | 0.00 | 76 | 1014.5 |
| 20260507064104 | 6 | 278 | 6.4 | 11.3 | 0.00 | 0.05 | 0.00 | 76 | 1014.4 |
| 20260507063558 | 6 | 281 | 6.4 | 9.7 | 0.00 | 0.05 | 0.00 | 76 | 1014.5 |
| 20260507063313 | 6 | 281 | 6.4 | 9.7 | 0.00 | 0.05 | 0.00 | 76 | 1014.5 |
| 20260507062808 | 7 | 278 | 6.4 | 9.7 | 0.00 | 0.05 | 0.00 | 76 | 1014.6 |
| 20260507062305 | 7 | 269 | 6.4 | 9.7 | 0.00 | 0.08 | 0.00 | 76 | 1014.7 |
| 20260507061534 | 7 | 288 | 6.4 | 9.7 | 0.00 | 0.08 | 0.00 | 77 | 1014.7 |
| 20260507061028 | 7 | 274 | 6.4 | 9.7 | 0.00 | 0.08 | 0.00 | 77 | 1014.6 |
| 20260507060522 | 7 | 285 | 6.4 | 9.7 | 0.00 | 0.08 | 0.00 | 77 | 1014.6 |
| 20260507060017 | 7 | 295 | 4.8 | 8.0 | 0.00 | 0.10 | 0.00 | 78 | 1014.5 |
| 20260507055517 | 7 | 281 | 4.8 | 8.0 | 0.00 | 0.10 | 0.00 | 78 | 1014.6 |
| 20260507055019 | 7 | 280 | 4.8 | 8.0 | 0.00 | 0.13 | 0.00 | 78 | 1014.6 |
| 20260507054518 | 7 | 292 | 4.8 | 8.0 | 0.00 | 0.13 | 0.00 | 78 | 1014.6 |
| 20260507054018 | 6 | 271 | 4.8 | 9.7 | 0.00 | 0.13 | 0.00 | 78 | 1014.5 |
| 20260507053518 | 6 | 278 | 4.8 | 9.7 | 0.00 | 0.15 | 0.00 | 79 | 1014.6 |
| 20260507053017 | 6 | 277 | 4.8 | 8.0 | 0.00 | 0.15 | 0.00 | 79 | 1014.5 |
| 20260507052745 | 6 | 278 | 3.2 | 6.4 | 0.00 | 0.15 | 0.00 | 79 | 1014.6 |
| 20260507052018 | 7 | 274 | 3.2 | 6.4 | 0.00 | 0.15 | 0.00 | 78 | 1014.6 |
| 20260507051518 | 7 | 258 | 4.8 | 8.0 | 0.00 | 0.15 | 0.00 | 78 | 1014.6 |
| 20260507051018 | 7 | 256 | 4.8 | 8.0 | 0.00 | 0.15 | 0.00 | 77 | 1014.6 |
| 20260507050516 | 7 | 263 | 4.8 | 8.0 | 0.00 | 0.15 | 0.00 | 76 | 1014.5 |
| 20260507050019 | 7 | 274 | 4.8 | 8.0 | 0.00 | 0.15 | 0.00 | 76 | 1014.5 |
| 20260507045518 | 7 | 281 | 6.4 | 9.7 | 0.00 | 0.15 | 0.00 | 75 | 1014.5 |
| 20260507045018 | 7 | 285 | 6.4 | 9.7 | 0.00 | 0.18 | 0.00 | 75 | 1014.5 |
| 20260507044739 | 7 | 278 | 6.4 | 8.0 | 0.00 | 0.18 | 0.00 | 75 | 1014.5 |
| 20260507044016 | 7 | 279 | 6.4 | 9.7 | 0.00 | 0.20 | 0.00 | 75 | 1014.5 |
| 20260507043514 | 7 | 283 | 6.4 | 9.7 | 0.00 | 0.20 | 0.00 | 76 | 1014.5 |
| 20260507043014 | 7 | 278 | 6.4 | 9.7 | 0.00 | 0.23 | 0.00 | 76 | 1014.5 |
| 20260507042736 | 7 | 268 | 6.4 | 9.7 | 0.00 | 0.25 | 0.00 | 76 | 1014.5 |
| 20260507042015 | 7 | 284 | 6.4 | 9.7 | 0.00 | 0.25 | 0.00 | 77 | 1014.4 |
| 20260507041740 | 7 | 283 | 4.8 | 9.7 | 0.00 | 0.25 | 0.00 | 77 | 1014.5 |
| 20260507041235 | 7 | 279 | 4.8 | 9.7 | 0.00 | 0.25 | 0.00 | 78 | 1014.4 |
| 20260507040515 | 7 | 280 | 3.2 | 9.7 | 0.00 | 0.25 | 0.00 | 79 | 1014.4 |
| 20260507040241 | 7 | 271 | 3.2 | 4.8 | 0.00 | 0.25 | 0.00 | 79 | 1014.4 |
| 20260507035516 | 7 | 274 | 3.2 | 4.8 | 0.00 | 0.25 | 0.25 | 79 | 1014.5 |
| 20260507035017 | 7 | 268 | 3.2 | 4.8 | 0.00 | 0.25 | 0.25 | 79 | 1014.5 |
| 20260507034736 | 7 | 269 | 3.2 | 4.8 | 0.00 | 0.25 | 0.25 | 79 | 1014.5 |
| 20260507034015 | 7 | 278 | 3.2 | 4.8 | 0.00 | 0.25 | 0.25 | 79 | 1014.5 |
| 20260507033515 | 7 | 270 | 3.2 | 4.8 | 0.00 | 0.28 | 0.25 | 80 | 1014.5 |
| 20260507033016 | 7 | 269 | 3.2 | 4.8 | 0.00 | 0.30 | 0.25 | 80 | 1014.5 |
| 20260507032737 | 7 | 272 | 3.2 | 4.8 | 0.00 | 0.33 | 0.25 | 80 | 1014.5 |
| 20260507032015 | 7 | 269 | 3.2 | 3.2 | 0.00 | 0.36 | 0.25 | 81 | 1014.5 |
| 20260507031512 | 7 | 271 | 1.6 | 3.2 | 0.00 | 0.36 | 0.25 | 80 | 1014.5 |
| 20260507031014 | 8 | 259 | 1.6 | 3.2 | 0.00 | 0.36 | 0.25 | 79 | 1014.5 |
| 20260507030512 | 8 | 267 | 1.6 | 3.2 | 0.00 | 0.38 | 0.25 | 79 | 1014.5 |
| 20260507030012 | 8 | 262 | 1.6 | 3.2 | 0.00 | 0.38 | 0.25 | 79 | 1014.5 |
| 20260507025511 | 8 | 262 | 1.6 | 3.2 | 0.00 | 0.38 | 0.25 | 78 | 1014.5 |
| 20260507025234 | 8 | 259 | 1.6 | 3.2 | 0.00 | 0.38 | 0.25 | 78 | 1014.5 |
| 20260507024506 | 8 | 262 | 3.2 | 3.2 | 0.00 | 0.41 | 0.25 | 78 | 1014.6 |
| 20260507023959 | 8 | 259 | 1.6 | 3.2 | 0.00 | 0.41 | 0.25 | 78 | 1014.6 |
| 20260507023454 | 8 | 252 | 1.6 | 3.2 | 0.00 | 0.41 | 0.25 | 78 | 1014.6 |
| 20260507022953 | 8 | 255 | 1.6 | 4.8 | 0.00 | 0.41 | 0.25 | 77 | 1014.5 |
| 20260507022453 | 8 | 273 | 3.2 | 6.4 | 0.00 | 0.43 | 0.25 | 76 | 1014.5 |
| 20260507021953 | 8 | 278 | 3.2 | 6.4 | 0.00 | 0.43 | 0.25 | 77 | 1014.5 |
| 20260507021718 | 8 | 269 | 1.6 | 4.8 | 0.00 | 0.43 | 0.25 | 77 | 1014.5 |
| 20260507020953 | 8 | 248 | 3.2 | 6.4 | 0.00 | 0.43 | 0.25 | 78 | 1014.6 |
| 20260507020717 | 8 | 270 | 4.8 | 6.4 | 0.00 | 0.43 | 0.25 | 77 | 1014.5 |
| 20260507015952 | 8 | 274 | 4.8 | 8.0 | 0.00 | 0.46 | 0.25 | 76 | 1014.5 |
| 20260507015454 | 8 | 294 | 3.2 | 8.0 | 0.00 | 0.46 | 0.25 | 79 | 1014.5 |
| 20260507014954 | 8 | 274 | 1.6 | 8.0 | 0.00 | 0.48 | 0.25 | 82 | 1014.4 |
| 20260507014449 | 8 | 279 | 1.6 | 3.2 | 0.00 | 0.51 | 0.25 | 80 | 1014.4 |
| 20260507014151 | 9 | 258 | 3.2 | 4.8 | 0.00 | 0.56 | 0.25 | 78 | 1014.1 |
| 20260507013949 | 9 | 264 | 3.2 | 4.8 | 0.00 | 0.53 | 0.25 | 79 | 1014.3 |
| 20260507012949 | 9 | 236 | 3.2 | 3.2 | 0.00 | 0.58 | 0.25 | 77 | 1014.0 |
| 20260507012713 | 10 | 257 | 1.6 | 3.2 | 0.00 | 0.61 | 0.25 | 77 | 1014.0 |
| 20260507011949 | 10 | 255 | 1.6 | 3.2 | 0.00 | 0.64 | 0.25 | 75 | 1013.9 |
| 20260507011449 | 10 | 245 | 1.6 | 3.2 | 0.00 | 0.64 | 0.25 | 74 | 1013.8 |
| 20260507010950 | 10 | 253 | 1.6 | 3.2 | 0.00 | 0.64 | 0.25 | 74 | 1013.8 |
| 20260507010451 | 10 | 250 | 1.6 | 3.2 | 0.00 | 0.64 | 0.25 | 75 | 1013.7 |
| 20260507005945 | 10 | 251 | 1.6 | 3.2 | 0.00 | 0.66 | 0.25 | 74 | 1013.7 |
| 20260507005445 | 10 | 252 | 1.6 | 4.8 | 0.00 | 0.69 | 0.25 | 73 | 1013.8 |
| 20260507004946 | 10 | 275 | 3.2 | 4.8 | 0.00 | 0.71 | 0.25 | 72 | 1013.7 |
| 20260507004446 | 10 | 270 | 3.2 | 4.8 | 0.00 | 0.74 | 0.25 | 72 | 1013.6 |
| 20260507003946 | 10 | 283 | 3.2 | 4.8 | 0.00 | 0.81 | 0.25 | 71 | 1013.5 |
| 20260507003444 | 11 | 279 | 3.2 | 6.4 | 0.00 | 0.84 | 0.25 | 70 | 1013.5 |
| 20260507002943 | 11 | 274 | 3.2 | 8.0 | 0.00 | 0.89 | 0.25 | 69 | 1013.5 |
| 20260507002444 | 11 | 285 | 4.8 | 8.0 | 0.00 | 0.94 | 0.25 | 69 | 1013.4 |
| 20260507001944 | 11 | 259 | 4.8 | 8.0 | 0.00 | 0.99 | 0.25 | 69 | 1013.5 |
| 20260507001445 | 11 | 266 | 4.8 | 8.0 | 0.00 | 1.04 | 0.25 | 68 | 1013.5 |
| 20260507000938 | 11 | 293 | 4.8 | 8.0 | 0.00 | 1.07 | 0.25 | 69 | 1013.4 |
| 20260507000442 | 11 | 288 | 6.4 | 9.7 | 0.00 | 1.09 | 0.25 | 70 | 1013.4 |
| 20260506235932 | 11 | 299 | 4.8 | 9.7 | 0.00 | 1.09 | 0.25 | 67 | 1013.3 |
| 20260506235654 | 11 | 288 | 4.8 | 8.0 | 0.00 | 1.12 | 0.25 | 67 | 1013.3 |
| 20260506235148 | 11 | 289 | 4.8 | 9.7 | 0.00 | 1.14 | 0.25 | 67 | 1013.3 |
| 20260506234419 | 11 | 284 | 6.4 | 9.7 | 0.00 | 1.14 | 0.25 | 66 | 1013.3 |
| 20260506234143 | 11 | 300 | 6.4 | 9.7 | 0.00 | 1.17 | 0.25 | 67 | 1013.3 |
| 20260506233419 | 11 | 291 | 6.4 | 11.3 | 0.00 | 1.17 | 0.25 | 68 | 1013.4 |
| 20260506232919 | 11 | 289 | 8.0 | 16.1 | 0.00 | 1.19 | 0.25 | 67 | 1013.4 |
| 20260506232419 | 11 | 295 | 8.0 | 16.1 | 0.00 | 1.19 | 0.25 | 66 | 1013.3 |
| 20260506231918 | 11 | 299 | 6.4 | 12.9 | 0.00 | 1.22 | 0.25 | 64 | 1013.3 |
| 20260506231415 | 12 | 319 | 6.4 | 9.7 | 0.00 | 1.22 | 0.25 | 63 | 1013.4 |
| 20260506230914 | 12 | 288 | 8.0 | 14.5 | 0.00 | 1.24 | 0.25 | 64 | 1013.4 |
| 20260506230414 | 12 | 319 | 8.0 | 14.5 | 0.00 | 1.24 | 0.25 | 62 | 1013.4 |
| 20260506225914 | 12 | 276 | 8.0 | 12.9 | 0.00 | 1.27 | 0.25 | 62 | 1013.4 |
| 20260506225413 | 12 | 278 | 8.0 | 12.9 | 0.00 | 1.27 | 0.25 | 59 | 1013.4 |
| 20260506224912 | 12 | 316 | 4.8 | 11.3 | 0.00 | 1.30 | 0.25 | 62 | 1013.5 |
| 20260506224412 | 11 | 311 | 6.4 | 11.3 | 0.00 | 1.30 | 0.25 | 60 | 1013.6 |
| 20260506223911 | 11 | 338 | 6.4 | 11.3 | 0.00 | 1.30 | 0.25 | 60 | 1013.7 |
| 20260506223405 | 11 | 317 | 6.4 | 11.3 | 0.00 | 1.30 | 0.25 | 59 | 1013.8 |
| 20260506222859 | 11 | 307 | 6.4 | 12.9 | 0.00 | 1.30 | 0.25 | 61 | 1013.8 |
| 20260506222353 | 11 | 321 | 8.0 | 16.1 | 0.00 | 1.30 | 0.25 | 61 | 1013.9 |
| 20260506221847 | 11 | 306 | 9.7 | 16.1 | 0.00 | 1.30 | 0.25 | 58 | 1013.9 |
| 20260506221341 | 11 | 301 | 9.7 | 14.5 | 0.00 | 1.32 | 0.25 | 60 | 1013.9 |
| 20260506220835 | 11 | 300 | 9.7 | 17.7 | 0.00 | 1.32 | 0.25 | 58 | 1013.8 |
| 20260506220328 | 11 | 300 | 9.7 | 17.7 | 0.00 | 1.32 | 0.25 | 57 | 1013.7 |
| 20260506215823 | 11 | 315 | 8.0 | 11.3 | 0.00 | 1.32 | 0.25 | 59 | 1013.6 |
| 20260506215317 | 11 | 319 | 8.0 | 12.9 | 0.00 | 1.35 | 0.25 | 59 | 1013.6 |
| 20260506214811 | 11 | 316 | 8.0 | 14.5 | 0.00 | 1.35 | 0.25 | 58 | 1013.5 |
| 20260506214305 | 12 | 297 | 6.4 | 14.5 | 0.00 | 1.35 | 0.25 | 60 | 1013.4 |
| 20260506214020 | 11 | 283 | 8.0 | 14.5 | 0.00 | 1.35 | 0.25 | 60 | 1013.4 |
| 20260506213253 | 11 | 309 | 8.0 | 14.5 | 0.00 | 1.40 | 0.25 | 58 | 1013.5 |
| 20260506212747 | 11 | 283 | 8.0 | 14.5 | 0.00 | 1.42 | 0.25 | 56 | 1013.6 |
| 20260506212241 | 11 | 309 | 9.7 | 17.7 | 0.00 | 1.42 | 0.25 | 58 | 1013.5 |
| 20260506211735 | 11 | 295 | 11.3 | 17.7 | 0.00 | 1.45 | 0.25 | 60 | 1013.5 |
| 20260506211230 | 11 | 307 | 12.9 | 20.9 | 0.00 | 1.47 | 0.25 | 54 | 1013.3 |
| 20260506210946 | 11 | 304 | 11.3 | 20.9 | 0.00 | 1.55 | 0.25 | 57 | 1013.2 |
| 20260506210217 | 12 | 293 | 9.7 | 17.7 | 0.00 | 1.57 | 0.25 | 58 | 1013.1 |
| 20260506205942 | 12 | 312 | 8.0 | 14.5 | 0.00 | 1.60 | 0.25 | 59 | 1013.2 |
| 20260506205205 | 12 | 281 | 9.7 | 16.1 | 0.00 | 1.63 | 0.25 | 61 | 1013.2 |
| 20260506204659 | 12 | 293 | 11.3 | 19.3 | 0.00 | 1.65 | 0.25 | 58 | 1013.3 |
| 20260506204154 | 12 | 298 | 11.3 | 19.3 | 0.00 | 1.65 | 0.25 | 57 | 1013.3 |
| 20260506203647 | 12 | 295 | 9.7 | 17.7 | 0.00 | 1.65 | 0.25 | 56 | 1013.3 |
| 20260506203141 | 12 | 329 | 8.0 | 14.5 | 0.00 | 1.68 | 0.25 | 55 | 1013.3 |
| 20260506202634 | 12 | 290 | 9.7 | 16.1 | 0.00 | 1.68 | 0.25 | 53 | 1013.2 |
| 20260506202130 | 12 | 317 | 8.0 | 16.1 | 0.00 | 1.70 | 0.25 | 54 | 1013.3 |
| 20260506201623 | 12 | 299 | 6.4 | 14.5 | 0.00 | 1.70 | 0.25 | 59 | 1013.4 |
| 20260506201117 | 12 | 20 | 8.0 | 12.9 | 0.00 | 1.73 | 0.25 | 56 | 1013.3 |
| 20260506200612 | 12 | 297 | 9.7 | 16.1 | 0.00 | 1.75 | 0.25 | 55 | 1013.4 |
| 20260506200105 | 12 | 307 | 11.3 | 20.9 | 0.00 | 1.75 | 0.25 | 51 | 1013.4 |
| 20260506195820 | 12 | 292 | 11.3 | 20.9 | 0.00 | 1.78 | 0.25 | 56 | 1013.3 |
| 20260506195053 | 12 | 313 | 9.7 | 16.1 | 0.00 | 1.78 | 0.25 | 59 | 1013.3 |
| 20260506194547 | 12 | 297 | 9.7 | 17.7 | 0.00 | 1.80 | 0.25 | 58 | 1013.3 |
| 20260506194041 | 12 | 295 | 9.7 | 17.7 | 0.00 | 1.85 | 0.25 | 58 | 1013.3 |
| 20260506193535 | 12 | 293 | 8.0 | 14.5 | 0.00 | 1.88 | 0.25 | 59 | 1013.3 |
| 20260506193030 | 12 | 278 | 6.4 | 12.9 | 0.00 | 1.91 | 0.25 | 58 | 1013.3 |
| 20260506192523 | 12 | 302 | 4.8 | 9.7 | 0.00 | 1.96 | 0.25 | 58 | 1013.2 |
| 20260506192018 | 12 | 347 | 4.8 | 11.3 | 0.00 | 1.96 | 0.25 | 60 | 1013.3 |
| 20260506191739 | 11 | 328 | 6.4 | 11.3 | 0.00 | 1.98 | 0.25 | 60 | 1013.4 |
| 20260506191005 | 11 | 297 | 6.4 | 9.7 | 0.00 | 2.03 | 0.25 | 58 | 1013.4 |
| 20260506190500 | 11 | 319 | 6.4 | 9.7 | 0.00 | 2.06 | 0.25 | 58 | 1013.3 |
| 20260506185953 | 11 | 8 | 6.4 | 9.7 | 0.00 | 2.08 | 0.25 | 58 | 1013.3 |
| 20260506185450 | 12 | 340 | 4.8 | 9.7 | 0.00 | 2.11 | 0.25 | 60 | 1013.3 |
| 20260506185207 | 11 | 323 | 4.8 | 11.3 | 0.00 | 2.11 | 0.25 | 59 | 1013.4 |
| 20260506184939 | 11 | 304 | 8.0 | 12.9 | 0.00 | 2.11 | 0.25 | 58 | 1013.3 |
| 20260506183950 | 11 | 278 | 8.0 | 12.9 | 0.00 | 2.13 | 0.25 | 58 | 1013.4 |
| 20260506183450 | 11 | 283 | 6.4 | 11.3 | 0.00 | 2.13 | 0.25 | 58 | 1013.4 |
| 20260506182950 | 11 | 345 | 8.0 | 12.9 | 0.00 | 2.13 | 0.25 | 62 | 1013.4 |
| 20260506182449 | 11 | 292 | 8.0 | 12.9 | 0.00 | 2.13 | 0.25 | 60 | 1013.4 |
| 20260506181951 | 11 | 308 | 4.8 | 11.3 | 0.00 | 2.16 | 0.25 | 59 | 1013.4 |
| 20260506181721 | 11 | 310 | 6.4 | 9.7 | 0.00 | 2.21 | 0.25 | 59 | 1013.3 |
| 20260506180951 | 11 | 299 | 8.0 | 12.9 | 0.00 | 2.26 | 0.25 | 60 | 1013.3 |
| 20260506180448 | 11 | 283 | 6.4 | 12.9 | 0.00 | 2.34 | 0.25 | 61 | 1013.2 |
| 20260506175949 | 12 | 304 | 3.2 | 8.0 | 0.00 | 2.34 | 0.25 | 62 | 1013.1 |
| 20260506175447 | 11 | 344 | 3.2 | 8.0 | 0.00 | 2.34 | 0.25 | 63 | 1013.2 |
| 20260506174947 | 11 | 4 | 3.2 | 9.7 | 0.00 | 2.34 | 0.25 | 62 | 1013.3 |
| 20260506174446 | 11 | 0 | 6.4 | 12.9 | 0.00 | 2.34 | 0.25 | 64 | 1013.4 |
| 20260506173947 | 11 | 335 | 8.0 | 14.5 | 0.00 | 2.34 | 0.25 | 61 | 1013.6 |
| 20260506173442 | 11 | 323 | 6.4 | 14.5 | 0.00 | 2.34 | 0.25 | 61 | 1013.6 |
| 20260506172939 | 11 | 337 | 4.8 | 14.5 | 0.00 | 2.34 | 0.25 | 62 | 1013.5 |
| 20260506172439 | 11 | 0 | 4.8 | 14.5 | 0.00 | 2.34 | 0.25 | 63 | 1013.5 |
| 20260506171937 | 11 | 349 | 6.4 | 12.9 | 0.00 | 2.34 | 0.25 | 63 | 1013.4 |
| 20260506171439 | 11 | 326 | 6.4 | 12.9 | 0.00 | 2.34 | 0.25 | 63 | 1013.5 |
| 20260506170938 | 12 | 314 | 8.0 | 14.5 | 0.00 | 2.34 | 0.25 | 64 | 1013.4 |
| 20260506170437 | 12 | 315 | 9.7 | 19.3 | 0.00 | 2.34 | 0.25 | 63 | 1013.3 |
| 20260506165939 | 12 | 33 | 6.4 | 19.3 | 0.00 | 2.34 | 0.25 | 64 | 1013.1 |
| 20260506165439 | 12 | 355 | 4.8 | 12.9 | 0.00 | 2.34 | 0.25 | 62 | 1013.1 |
| 20260506165158 | 12 | 315 | 6.4 | 14.5 | 0.00 | 2.34 | 0.25 | 66 | 1013.1 |
| 20260506164438 | 11 | 342 | 8.0 | 16.1 | 0.00 | 2.34 | 0.25 | 64 | 1013.4 |
| 20260506163939 | 11 | 325 | 8.0 | 16.1 | 0.00 | 2.34 | 0.25 | 64 | 1013.5 |
| 20260506163439 | 11 | 320 | 8.0 | 12.9 | 0.00 | 2.34 | 0.25 | 64 | 1013.5 |
| 20260506162938 | 12 | 24 | 8.0 | 12.9 | 0.00 | 2.34 | 0.25 | 63 | 1013.5 |
| 20260506162437 | 12 | 308 | 8.0 | 16.1 | 0.00 | 2.34 | 0.25 | 64 | 1013.6 |
| 20260506162202 | 12 | 354 | 8.0 | 16.1 | 0.00 | 2.34 | 0.25 | 64 | 1013.5 |
| 20260506161927 | 11 | 336 | 8.0 | 16.1 | 0.00 | 2.34 | 0.25 | 66 | 1013.5 |
| 20260506160939 | 11 | 325 | 9.7 | 17.7 | 0.00 | 2.34 | 0.25 | 63 | 1013.2 |
| 20260506160437 | 11 | 316 | 6.4 | 17.7 | 0.00 | 2.34 | 0.25 | 67 | 1013.2 |
| 20260506160157 | 12 | 15 | 6.4 | 14.5 | 0.00 | 2.34 | 0.25 | 66 | 1013.2 |
| 20260506155438 | 12 | 353 | 9.7 | 19.3 | 0.00 | 2.34 | 0.25 | 67 | 1013.4 |